Home > Weather > Skagen > Past weeks

Flag for Denmark Weather for the Past 2 Weeks in Skagen, Denmark

Now
36 °F

Chilly.


Feels Like: 36 °F
Forecast: 46 / 53 °F
Wind: 1 mph from South

Location: Gothenburg / Save

Current Time: May 5, 2016 at 12:51:53 AM

Latest Report: May 5, 2016 at 12:20 AM


Visibility: N/A

Pressure: 30.36 "Hg

Humidity: 93%

Dew Point: 34 °F

Location of SkagenLocation

Historic Weather in Skagen — Graph

°F

Skagen Temperature Yesterday

Maximum temperature yesterday: 52 °F (at 10:50 AM)
Minimum temperature yesterday: 41 °F (at 6:20 AM)
Average temperature yesterday: 48 °F

High & Low Weather Summary for the Past Weeks

 TemperatureHumidityPressure
High59 °F (May 3, 11:20 AM)100% (Apr 21, 4:20 AM)30.36 "Hg (Apr 21, 4:20 AM)
Low27 °F (Apr 24, 4:20 AM)26% (May 2, 3:50 PM)29.59 "Hg (Apr 25, 1:20 PM)
Average43 °F72%29.94 "Hg
* Reported Apr 19 7:20 PM — May 4 7:50 PM, Skagen, Weather by CustomWeather, © 2016

Note: Actual official high and low records may vary slightly from our data, if they occured in-between our weather recording intervals... More about our weather records

Advertising

Skagen Weather History for the Previous 24 Hours

Scroll right to see more
 ConditionsComfort  
Time TempWeatherWind HumidityBarometerVisibility
7:50 PM
Wed, May 4
50 °FSunny.6 mph62%30.36 "Hg10 mi
7:20 PM52 °FSunny.8 mph58%30.33 "Hg10 mi
6:20 PM52 °FSunny.9 mph62%30.33 "Hg10 mi
5:50 PM52 °FSunny.10 mph62%30.33 "Hg10 mi
5:20 PM52 °FSunny.12 mph62%30.33 "Hg10 mi
4:50 PM52 °FSunny.13 mph58%30.33 "Hg10 mi
4:20 PM52 °FSunny.13 mph54%30.33 "Hg10 mi
3:20 PM52 °FSunny.13 mph62%30.33 "Hg10 mi
2:50 PM52 °FSunny.14 mph62%30.33 "Hg10 mi
2:20 PM52 °FPassing clouds.12 mph67%30.33 "HgN/A
1:20 PM52 °FSunny.12 mph67%30.33 "Hg10 mi
12:50 PM52 °FSunny.13 mph58%30.30 "Hg10 mi
12:20 PM52 °FSunny.10 mph62%30.30 "Hg10 mi
11:20 AM52 °FSunny.10 mph62%30.30 "Hg10 mi
10:50 AM52 °FSunny.9 mph58%30.30 "Hg10 mi
9:50 AM50 °FSunny.10 mph67%30.30 "Hg10 mi
9:20 AM50 °FSunny.9 mph67%30.27 "Hg10 mi
8:20 AM48 °FSunny.8 mph71%30.27 "Hg10 mi
7:50 AM48 °FPassing clouds.5 mph76%30.24 "HgN/A
7:20 AM46 °FSunny.6 mph82%30.24 "Hg10 mi
6:20 AM41 °FQuite cool.No wind87%30.21 "HgN/A
5:50 AM43 °FQuite cool.5 mph87%30.21 "HgN/A
5:20 AM43 °FQuite cool.6 mph87%30.21 "HgN/A
4:50 AM45 °FQuite cool.5 mph81%30.18 "HgN/A
4:20 AM45 °FPassing clouds.6 mph87%30.18 "HgN/A
3:50 AM45 °FPassing clouds.5 mph87%30.18 "HgN/A
3:20 AM43 °FQuite cool.3 mph93%30.18 "HgN/A
2:50 AM45 °FPassing clouds.5 mph87%30.15 "HgN/A
1:50 AM45 °FOvercast.8 mph93%30.15 "HgN/A
12:50 AM45 °FPassing clouds.8 mph87%30.15 "HgN/A
Weather by CustomWeather, © 2016

See weather overviewHow to use our weather pages